Regional Weather Roundup
Issued by NWS Cleveland, OH

Home | Current Version | Previous Version | Graphics & Text | Print | Product List | Glossary On
Versions: 1 2 3 4 5 6 7 8 9 10 11 12 13 14 15 16 17 18 19 20 21 22 23 24 25 26 27 28 29 30 31 32 33 34 35 36 37 38 39 40 41 42 43 44 45 46 47 48 49 50
000
ASUS41 KCLE 252100
RWRCLE
OHIO REGIONAL WEATHER ROUNDUP
NATIONAL WEATHER SERVICE WILMINGTON, OH
500 PM EDT SUN SEP 25 2016

NOTE: "FAIR" INDICATES FEW OR NO CLOUDS BELOW 12,000 FEET WITH NO
SIGNIFICANT WEATHER AND/OR OBSTRUCTIONS TO VISIBILITY.

OHZ001>008-015>018-024>027-034-035-043-044-252200-
   NORTHWEST OHIO

CITY           SKY/WX    TMP DP  RH WIND       PRES   REMARKS
DEFIANCE       FAIR      79  55  43 S6        30.06F
FINDLAY        FAIR      82  47  29 NE7       30.06F
TOLEDO EXPRESS FAIR      73  54  51 NE10      30.07F
TOLEDO EXEC    FAIR      72  54  53 E9        30.10F
LIMA           FAIR      81  61  50 CALM      30.06F
$$

OHZ009>014-019>023-028>033-038-089-252200-
   NORTHEAST OHIO

CITY           SKY/WX    TMP DP  RH WIND       PRES   REMARKS
CLE-HOPKINS    FAIR      72  48  42 NE9       30.13F
CLE-LAKEFRONT  FAIR      70  51  51 NE13      30.10F
CUY CO. ARPT   SUNNY     73  52  46 N12       30.12F
LORAIN-ELYRIA  FAIR      71  48  43 E12       30.11F
ASHTABULA      FAIR      69  41  36 E3        30.14F
AKRON-CANTON   FAIR      74  43  32 VRB3      30.12F
WOOSTER        NOT AVBL
MANSFIELD      FAIR      78  44  29 CALM      30.10F
YOUNGSTOWN     PTSUNNY   72  43  35 CALM      30.13F
$$

OHZ042-051>053-060>062-070>072-077>081-252200-
  SOUTHWEST OHIO

CITY           SKY/WX    TMP DP  RH WIND       PRES   REMARKS
CINC-COVINGTON FAIR      86  64  47 VRB3      30.05F
CINC-LUNKEN    PTSUNNY   84  66  54 CALM      30.04F
HAMILTON       FAIR      85  64  49 CALM      30.05F
DAYTON         NOT AVBL
WRIGHT-PAT AFB NOT AVBL
DAYTON GENERAL FAIR      82  63  52 VRB3      30.06F
WILMINGTON     FAIR      83  63  50 NW5       30.06F
$$

OHZ036-037-039>041-045>050-054>059-063>069-073>076-082>088-252200-
  CENTRAL AND SOUTHEAST OHIO

CITY           SKY/WX    TMP DP  RH WIND       PRES   REMARKS
COLUMBUS       FAIR      81  47  30 CALM      30.07F
OSU AIRPORT    FAIR      80  56  43 SE3       30.08F
BOLTON FIELD   SUNNY     81  61  50 CALM      30.08F
RICKENBACK AFB NOT AVBL
NEWARK         FAIR      80  45  28 VRB3      30.08F
MARION         FAIR      82  44  26 CALM      30.08F
LANCASTER      FAIR      82  46  28 CALM      30.07F
ZANESVILLE     FAIR      81  43  26 CALM      30.08F
NEW PHILLY     FAIR      78  45  30 SW5       30.10F
$$



USA.gov is the U.S. government's official web portal to all federal, state and local government web resources and services.